Location: Earls Croome
(52.0667°N, 2.2000°W)
Time: 22:01:55
(UTC+00:00)

SMAP - Pass Details

Date: 17 November 2019
Orbit: 681 x 683 km, 98.1° (Epoch: 13 December)

Event Time Altitude Azimuth Distance (km) Brightness Sun altitude
Rises 06:41:09 0° 14° (NNE) 3,060 6.4 -7.8°
Reaches altitude 10° 06:43:24 10° 15° (NNE) 2,139 5.6 -7.5°
Maximum altitude 06:48:05 86° 102° (ESE) 692 3.2 -6.8°
Drops below altitude 10° 06:52:45 10° 195° (SSW) 2,122 5.7 -6.2°
Sets 06:54:58 0° 196° (SSW) 3,032 6.5 -5.9°
